Location: Arleux
(50.3632°N, 2.8721°E)
Time: 00:49:07
(UTC+00:00)

Cosmos 1842 - Pass Details

Date: 15 December 2019
Orbit: 523 x 536 km, 82.5° (Epoch: 19 January)

Event Time Altitude Azimuth Distance (km) Brightness Sun altitude
Rises 06:43:22 0° 352° (N) 2,697 6.5 -8.8°
Reaches altitude 10° 06:45:33 10° 356° (N) 1,803 5.7 -8.5°
Maximum altitude 06:49:28 61° 77° (ENE) 617 3.8 -7.9°
Drops below altitude 10° 06:53:22 10° 159° (SSE) 1,791 6.7 -7.3°
Sets 06:55:32 0° 163° (SSE) 2,678 7.6 -7.0°
